Time,TemperatureF,DewpointF,PressureIn,WindDirection,WindDirectionDegrees,WindSpeedMPH,WindSpeedGustMPH,Humidity,HourlyPrecipIn,Conditions,Clouds,dailyrainin,SoftwareType,DateUTC
2013-02-12 00:01:00,29.0,22.0,30.22,SW,229,0.0,1.0,75,0.00,,,0.00,,2013-02-12 06:01:00,
2013-02-12 00:12:00,29.0,22.0,30.22,SW,231,0.0,1.0,75,0.00,,,0.00,,2013-02-12 06:12:00,
2013-02-12 00:21:00,29.0,22.0,30.22,SW,231,0.0,1.0,75,0.00,,,0.00,,2013-02-12 06:21:00,
2013-02-12 00:31:00,28.0,21.0,30.22,SW,231,0.0,0.0,75,0.00,,,0.00,,2013-02-12 06:31:00,
2013-02-12 00:42:00,29.0,22.0,30.22,SW,231,0.0,1.0,76,0.00,,,0.00,,2013-02-12 06:42:00,
2013-02-12 00:52:00,29.0,22.0,30.22,SW,231,0.0,1.0,76,0.00,,,0.00,,2013-02-12 06:52:00,
2013-02-12 01:01:00,29.0,22.0,30.21,SW,231,0.0,1.0,75,0.00,,,0.00,,2013-02-12 07:01:00,
2013-02-12 01:11:00,29.0,22.0,30.21,SW,231,0.0,1.0,75,0.00,,,0.00,,2013-02-12 07:11:00,
2013-02-12 01:21:00,29.0,22.0,30.21,SW,231,0.0,0.0,76,0.00,,,0.00,,2013-02-12 07:21:00,
2013-02-12 01:31:00,30.0,24.0,30.20,SW,232,0.0,0.0,77,0.00,,,0.00,,2013-02-12 07:31:00,
2013-02-12 01:41:00,30.0,24.0,30.20,SW,232,0.0,0.0,77,0.00,,,0.00,,2013-02-12 07:41:00,
2013-02-12 01:52:00,29.0,23.0,30.20,SW,232,0.0,0.0,77,0.00,,,0.00,,2013-02-12 07:52:00,
2013-02-12 02:01:00,29.0,23.0,30.19,SW,231,0.0,0.0,77,0.00,,,0.00,,2013-02-12 08:01:00,
2013-02-12 02:11:00,29.0,23.0,30.19,SW,231,0.0,0.0,77,0.00,,,0.00,,2013-02-12 08:11:00,
2013-02-12 02:21:00,29.0,23.0,30.19,SW,231,0.0,0.0,78,0.00,,,0.00,,2013-02-12 08:21:00,
2013-02-12 02:31:00,29.0,23.0,30.19,SW,231,0.0,1.0,78,0.00,,,0.00,,2013-02-12 08:31:00,
2013-02-12 02:41:00,29.0,23.0,30.19,SW,231,0.0,1.0,78,0.00,,,0.00,,2013-02-12 08:41:00,
2013-02-12 02:52:00,29.0,23.0,30.19,SW,233,0.0,0.0,79,0.00,,,0.00,,2013-02-12 08:52:00,
2013-02-12 03:01:00,29.0,24.0,30.17,SW,232,0.0,0.0,80,0.00,,,0.00,,2013-02-12 09:01:00,
2013-02-12 03:11:00,29.0,24.0,30.17,SW,232,0.0,1.0,80,0.00,,,0.00,,2013-02-12 09:11:00,
2013-02-12 03:21:00,29.0,24.0,30.17,SW,232,0.0,1.0,80,0.00,,,0.00,,2013-02-12 09:21:00,
2013-02-12 03:31:00,30.0,24.0,30.17,SW,232,0.0,0.0,79,0.00,,,0.00,,2013-02-12 09:31:00,
2013-02-12 03:41:00,30.0,25.0,30.17,SW,233,0.0,1.0,80,0.00,,,0.00,,2013-02-12 09:41:00,
2013-02-12 03:52:00,30.0,25.0,30.17,SW,233,0.0,1.0,80,0.00,,,0.00,,2013-02-12 09:52:00,
2013-02-12 04:01:00,30.0,24.0,30.19,WSW,242,0.0,1.0,79,0.00,,,0.00,,2013-02-12 10:01:00,
2013-02-12 04:11:00,29.0,24.0,30.19,WSW,239,0.0,1.0,81,0.00,,,0.00,,2013-02-12 10:11:00,
2013-02-12 04:21:00,29.0,24.0,30.19,WSW,239,0.0,1.0,81,0.00,,,0.00,,2013-02-12 10:21:00,
2013-02-12 04:31:00,29.0,25.0,30.19,SW,224,0.0,1.0,84,0.00,,,0.00,,2013-02-12 10:31:00,
2013-02-12 04:43:00,29.0,25.0,30.19,SW,224,0.0,1.0,84,0.00,,,0.00,,2013-02-12 10:43:00,
2013-02-12 04:52:00,29.0,25.0,30.19,WNW,297,0.0,1.0,83,0.00,,,0.00,,2013-02-12 10:52:00,
2013-02-12 05:01:00,29.0,25.0,30.19,WNW,293,0.0,0.0,83,0.00,,,0.00,,2013-02-12 11:01:00,
2013-02-12 05:11:00,29.0,25.0,30.19,WNW,293,0.0,0.0,83,0.00,,,0.00,,2013-02-12 11:11:00,
2013-02-12 05:21:00,29.0,24.0,30.18,WNW,299,0.0,0.0,82,0.00,,,0.00,,2013-02-12 11:21:00,
2013-02-12 05:31:00,29.0,24.0,30.17,WNW,299,0.0,0.0,82,0.00,,,0.00,,2013-02-12 11:31:00,
2013-02-12 05:41:00,29.0,24.0,30.17,WNW,299,0.0,0.0,82,0.00,,,0.00,,2013-02-12 11:41:00,
2013-02-12 05:52:00,29.0,24.0,30.17,WNW,299,0.0,0.0,82,0.00,,,0.00,,2013-02-12 11:52:00,
2013-02-12 06:01:00,29.0,24.0,30.16,WNW,299,0.0,0.0,82,0.00,,,0.00,,2013-02-12 12:01:00,
2013-02-12 06:11:00,29.0,24.0,30.16,WNW,299,0.0,0.0,82,0.00,,,0.00,,2013-02-12 12:11:00,
2013-02-12 06:21:00,29.0,24.0,30.16,WNW,299,0.0,0.0,82,0.00,,,0.00,,2013-02-12 12:21:00,
2013-02-12 06:32:00,29.0,24.0,30.16,WNW,299,0.0,0.0,82,0.00,,,0.00,,2013-02-12 12:32:00,
2013-02-12 06:42:00,29.0,24.0,30.16,WNW,299,0.0,0.0,82,0.00,,,0.00,,2013-02-12 12:42:00,
2013-02-12 06:53:00,29.0,24.0,30.14,WNW,299,0.0,0.0,82,0.00,,,0.00,,2013-02-12 12:53:00,
2013-02-12 07:01:00,29.0,24.0,30.15,WNW,299,0.0,0.0,82,0.00,,,0.00,,2013-02-12 13:01:00,
2013-02-12 07:11:00,29.0,24.0,30.14,WNW,299,0.0,0.0,82,0.00,,,0.00,,2013-02-12 13:11:00,
2013-02-12 07:22:00,29.0,24.0,30.14,WNW,299,0.0,0.0,82,0.00,,,0.00,,2013-02-12 13:22:00,
2013-02-12 07:32:00,29.0,24.0,30.14,WNW,299,0.0,0.0,82,0.00,,,0.00,,2013-02-12 13:32:00,
2013-02-12 07:42:00,29.0,24.0,30.14,WNW,299,0.0,0.0,82,0.00,,,0.00,,2013-02-12 13:42:00,
2013-02-12 07:52:00,29.0,24.0,30.14,WNW,299,0.0,0.0,82,0.00,,,0.00,,2013-02-12 13:52:00,
2013-02-12 08:01:00,29.0,24.0,30.14,WNW,299,0.0,0.0,82,0.00,,,0.00,,2013-02-12 14:01:00,
2013-02-12 08:11:00,29.0,24.0,30.14,WNW,299,0.0,0.0,82,0.00,,,0.00,,2013-02-12 14:11:00,
2013-02-12 08:21:00,29.0,24.0,30.14,WNW,299,0.0,0.0,82,0.00,,,0.00,,2013-02-12 14:21:00,
2013-02-12 08:31:00,29.0,24.0,30.14,WNW,291,0.0,0.0,80,0.00,,,0.00,,2013-02-12 14:31:00,
2013-02-12 08:42:00,29.0,24.0,30.14,WNW,291,0.0,0.0,80,0.00,,,0.00,,2013-02-12 14:42:00,
2013-02-12 08:52:00,29.0,24.0,30.14,WNW,291,0.0,0.0,80,0.00,,,0.00,,2013-02-12 14:52:00,
2013-02-12 09:01:00,30.0,24.0,30.14,WNW,291,0.0,0.0,79,0.00,,,0.00,,2013-02-12 15:01:00,
2013-02-12 09:11:00,31.0,25.0,30.15,WNW,291,0.0,0.0,78,0.00,,,0.00,,2013-02-12 15:11:00,
2013-02-12 09:21:00,31.0,25.0,30.15,WNW,291,0.0,0.0,78,0.00,,,0.00,,2013-02-12 15:21:00,
2013-02-12 09:32:00,32.0,25.0,30.15,SSE,166,0.0,1.0,76,0.00,,,0.00,,2013-02-12 15:32:00,
2013-02-12 09:42:00,32.0,25.0,30.15,SSE,166,0.0,1.0,76,0.00,,,0.00,,2013-02-12 15:42:00,
2013-02-12 09:52:00,33.0,25.0,30.16,South,170,0.0,4.0,71,0.00,,,0.00,,2013-02-12 15:52:00,
2013-02-12 10:01:00,34.0,25.0,30.16,SW,222,0.0,6.0,70,0.00,,,0.00,,2013-02-12 16:01:00,
2013-02-12 10:11:00,34.0,25.0,30.16,SW,222,0.0,6.0,70,0.00,,,0.00,,2013-02-12 16:11:00,
2013-02-12 10:22:00,35.0,26.0,30.16,SSW,205,0.0,1.0,69,0.00,,,0.00,,2013-02-12 16:22:00,
2013-02-12 10:31:00,35.0,26.0,30.16,SW,214,1.0,5.0,69,0.00,,,0.00,,2013-02-12 16:31:00,
2013-02-12 10:41:00,35.0,26.0,30.16,SW,214,1.0,5.0,69,0.00,,,0.00,,2013-02-12 16:41:00,
2013-02-12 10:52:00,36.0,26.0,30.17,SW,226,0.0,6.0,68,0.00,,,0.00,,2013-02-12 16:52:00,
2013-02-12 11:01:00,36.0,26.0,30.16,SW,219,0.0,6.0,68,0.00,,,0.00,,2013-02-12 17:01:00,
2013-02-12 11:11:00,37.0,27.0,30.15,SW,233,0.0,4.0,66,0.00,,,0.00,,2013-02-12 17:11:00,
2013-02-12 11:21:00,37.0,27.0,30.15,SW,233,0.0,4.0,66,0.00,,,0.00,,2013-02-12 17:21:00,
2013-02-12 11:32:00,38.0,28.0,30.14,WSW,248,0.0,3.0,66,0.00,,,0.00,,2013-02-12 17:32:00,
2013-02-12 11:42:00,38.0,28.0,30.14,WSW,248,0.0,3.0,66,0.00,,,0.00,,2013-02-12 17:42:00,
2013-02-12 11:52:00,39.0,27.0,30.14,WSW,250,0.0,1.0,63,0.00,,,0.00,,2013-02-12 17:52:00,
2013-02-12 12:01:00,40.0,27.0,30.13,South,184,0.0,1.0,60,0.00,,,0.00,,2013-02-12 18:01:00,
2013-02-12 12:11:00,41.0,27.0,30.13,West,263,0.0,1.0,56,0.00,,,0.00,,2013-02-12 18:11:00,
2013-02-12 12:22:00,41.0,27.0,30.13,West,263,0.0,1.0,56,0.00,,,0.00,,2013-02-12 18:22:00,
2013-02-12 12:31:00,42.0,27.0,30.13,SW,222,0.0,6.0,54,0.00,,,0.00,,2013-02-12 18:31:00,
2013-02-12 12:41:00,42.0,27.0,30.13,SW,222,0.0,6.0,54,0.00,,,0.00,,2013-02-12 18:41:00,
2013-02-12 12:52:00,42.0,26.0,30.12,West,263,0.0,1.0,53,0.00,,,0.00,,2013-02-12 18:52:00,
2013-02-12 13:02:00,43.0,26.0,30.12,WSW,242,2.0,4.0,50,0.00,,,0.00,,2013-02-12 19:02:00,
2013-02-12 13:11:00,43.0,25.0,30.11,SW,228,0.0,5.0,49,0.00,,,0.00,,2013-02-12 19:11:00,
2013-02-12 13:21:00,43.0,25.0,30.11,SW,228,0.0,5.0,49,0.00,,,0.00,,2013-02-12 19:21:00,
2013-02-12 13:31:00,44.0,26.0,30.10,SW,233,4.0,5.0,48,0.00,,,0.00,,2013-02-12 19:31:00,
2013-02-12 13:41:00,44.0,26.0,30.09,SW,215,0.0,4.0,48,0.00,,,0.00,,2013-02-12 19:41:00,
2013-02-12 13:52:00,44.0,26.0,30.09,SW,215,0.0,4.0,48,0.00,,,0.00,,2013-02-12 19:52:00,
2013-02-12 14:01:00,45.0,26.0,30.09,West,263,3.0,3.0,47,0.00,,,0.00,,2013-02-12 20:01:00,
2013-02-12 14:11:00,45.0,26.0,30.09,West,263,3.0,3.0,47,0.00,,,0.00,,2013-02-12 20:11:00,
2013-02-12 14:21:00,45.0,27.0,30.09,SSW,196,0.0,4.0,48,0.00,,,0.00,,2013-02-12 20:21:00,
2013-02-12 14:31:00,45.0,26.0,30.07,SSW,208,0.0,4.0,47,0.00,,,0.00,,2013-02-12 20:31:00,
2013-02-12 14:41:00,45.0,26.0,30.07,SSW,208,0.0,4.0,47,0.00,,,0.00,,2013-02-12 20:41:00,
2013-02-12 14:52:00,45.0,25.0,30.07,WSW,249,0.0,3.0,46,0.00,,,0.00,,2013-02-12 20:52:00,
2013-02-12 15:01:00,45.0,26.0,30.06,WNW,284,0.0,1.0,47,0.00,,,0.00,,2013-02-12 21:01:00,
2013-02-12 15:11:00,45.0,26.0,30.06,WNW,284,0.0,1.0,47,0.00,,,0.00,,2013-02-12 21:11:00,
2013-02-12 15:21:00,45.0,26.0,30.06,SW,228,0.0,1.0,47,0.00,,,0.00,,2013-02-12 21:21:00,
2013-02-12 15:31:00,45.0,26.0,30.06,SW,218,0.0,5.0,47,0.00,,,0.00,,2013-02-12 21:31:00,
2013-02-12 15:42:00,45.0,26.0,30.06,SW,221,0.0,6.0,47,0.00,,,0.00,,2013-02-12 21:42:00,
2013-02-12 15:52:00,45.0,26.0,30.06,SW,221,0.0,6.0,47,0.00,,,0.00,,2013-02-12 21:52:00,
2013-02-12 16:01:00,45.0,27.0,30.05,SSW,212,0.0,1.0,48,0.00,,,0.00,,2013-02-12 22:01:00,
2013-02-12 16:12:00,45.0,27.0,30.05,SSW,212,0.0,1.0,48,0.00,,,0.00,,2013-02-12 22:12:00,
2013-02-12 16:21:00,45.0,27.0,30.05,SSW,193,3.0,6.0,48,0.00,,,0.00,,2013-02-12 22:21:00,
2013-02-12 16:32:00,45.0,27.0,30.05,SW,229,7.0,7.0,48,0.00,,,0.00,,2013-02-12 22:32:00,
2013-02-12 16:41:00,45.0,27.0,30.05,SW,229,7.0,7.0,48,0.00,,,0.00,,2013-02-12 22:41:00,
2013-02-12 16:52:00,45.0,27.0,30.04,SSW,200,3.0,7.0,48,0.00,,,0.00,,2013-02-12 22:52:00,
2013-02-12 17:01:00,45.0,27.0,30.04,SW,224,0.0,7.0,50,0.00,,,0.00,,2013-02-12 23:01:00,
2013-02-12 17:11:00,44.0,27.0,30.04,SW,215,2.0,6.0,51,0.00,,,0.00,,2013-02-12 23:11:00,
2013-02-12 17:21:00,44.0,27.0,30.04,SW,215,2.0,6.0,51,0.00,,,0.00,,2013-02-12 23:21:00,
2013-02-12 17:31:00,44.0,27.0,30.03,South,172,0.0,8.0,51,0.00,,,0.00,,2013-02-12 23:31:00,
2013-02-12 17:42:00,44.0,27.0,30.03,South,172,0.0,8.0,51,0.00,,,0.00,,2013-02-12 23:42:00,
2013-02-12 17:52:00,44.0,27.0,30.03,SSE,167,0.0,7.0,51,0.00,,,0.00,,2013-02-12 23:52:00,
2013-02-12 18:02:00,43.0,27.0,30.02,SW,225,0.0,6.0,53,0.00,,,0.00,,2013-02-13 00:02:00,
2013-02-12 18:11:00,43.0,27.0,30.02,SW,225,0.0,6.0,53,0.00,,,0.00,,2013-02-13 00:11:00,
2013-02-12 18:21:00,43.0,28.0,30.02,SSW,204,0.0,1.0,54,0.00,,,0.00,,2013-02-13 00:21:00,
2013-02-12 18:32:00,42.0,27.0,30.02,SW,225,0.0,6.0,55,0.00,,,0.00,,2013-02-13 00:32:00,
2013-02-12 18:42:00,42.0,27.0,30.02,SW,225,0.0,6.0,55,0.00,,,0.00,,2013-02-13 00:42:00,
2013-02-12 18:52:00,41.0,27.0,30.02,SSE,167,0.0,1.0,57,0.00,,,0.00,,2013-02-13 00:52:00,
2013-02-12 19:01:00,41.0,28.0,30.02,SW,226,0.0,1.0,59,0.00,,,0.00,,2013-02-13 01:01:00,
2013-02-12 19:11:00,41.0,28.0,30.02,SW,226,0.0,1.0,59,0.00,,,0.00,,2013-02-13 01:11:00,
2013-02-12 19:21:00,40.0,28.0,30.01,SW,233,0.0,1.0,61,0.00,,,0.00,,2013-02-13 01:21:00,
2013-02-12 19:31:00,39.0,27.0,30.01,SW,225,0.0,1.0,62,0.00,,,0.00,,2013-02-13 01:31:00,
2013-02-12 19:42:00,38.0,27.0,30.01,SSW,208,1.0,1.0,64,0.00,,,0.00,,2013-02-13 01:42:00,
2013-02-12 19:52:00,38.0,27.0,30.01,SSW,208,1.0,1.0,64,0.00,,,0.00,,2013-02-13 01:52:00,
2013-02-12 20:01:00,38.0,28.0,30.01,South,188,0.0,1.0,66,0.00,,,0.00,,2013-02-13 02:01:00,
2013-02-12 20:11:00,37.0,27.0,30.02,WSW,239,0.0,1.0,67,0.00,,,0.00,,2013-02-13 02:11:00,
2013-02-12 20:21:00,37.0,27.0,30.02,WSW,239,0.0,1.0,67,0.00,,,0.00,,2013-02-13 02:21:00,
2013-02-12 20:31:00,36.0,26.0,30.01,SSE,164,0.0,1.0,68,0.00,,,0.00,,2013-02-13 02:31:00,
2013-02-12 20:41:00,36.0,26.0,30.01,SSE,164,0.0,1.0,68,0.00,,,0.00,,2013-02-13 02:41:00,
2013-02-12 20:52:00,36.0,27.0,30.01,SSW,211,0.0,1.0,69,0.00,,,0.00,,2013-02-13 02:52:00,
2013-02-12 21:01:00,35.0,26.0,30.01,SW,236,0.0,1.0,70,0.00,,,0.00,,2013-02-13 03:01:00,
2013-02-12 21:11:00,35.0,27.0,30.02,SW,218,0.0,1.0,71,0.00,,,0.00,,2013-02-13 03:11:00,
2013-02-12 21:21:00,35.0,27.0,30.02,SW,218,0.0,1.0,71,0.00,,,0.00,,2013-02-13 03:21:00,
2013-02-12 21:32:00,34.0,26.0,30.02,SW,226,0.0,1.0,72,0.00,,,0.00,,2013-02-13 03:32:00,
2013-02-12 21:41:00,34.0,26.0,30.02,SW,226,0.0,1.0,72,0.00,,,0.00,,2013-02-13 03:41:00,
2013-02-12 21:52:00,34.0,26.0,30.03,WSW,238,0.0,1.0,73,0.00,,,0.00,,2013-02-13 03:52:00,
2013-02-12 22:01:00,34.0,26.0,30.02,SW,224,0.0,1.0,73,0.00,,,0.00,,2013-02-13 04:01:00,
2013-02-12 22:11:00,34.0,26.0,30.02,SW,224,0.0,1.0,73,0.00,,,0.00,,2013-02-13 04:11:00,
2013-02-12 22:21:00,33.0,26.0,30.02,SSE,168,0.0,1.0,74,0.00,,,0.00,,2013-02-13 04:21:00,
2013-02-12 22:31:00,33.0,26.0,30.02,SW,221,0.0,1.0,75,0.00,,,0.00,,2013-02-13 04:31:00,
2013-02-12 22:41:00,33.0,26.0,30.02,SW,221,0.0,1.0,75,0.00,,,0.00,,2013-02-13 04:41:00,
2013-02-12 22:52:00,32.0,26.0,30.02,SW,233,0.0,1.0,77,0.00,,,0.00,,2013-02-13 04:52:00,
2013-02-12 23:01:00,32.0,26.0,30.01,SW,226,0.0,1.0,79,0.00,,,0.00,,2013-02-13 05:01:00,
2013-02-12 23:11:00,32.0,27.0,30.02,SW,225,0.0,1.0,81,0.00,,,0.00,,2013-02-13 05:11:00,
2013-02-12 23:22:00,32.0,27.0,30.02,SW,225,0.0,1.0,81,0.00,,,0.00,,2013-02-13 05:22:00,
2013-02-12 23:31:00,32.0,27.0,30.02,WSW,246,0.0,1.0,83,0.00,,,0.00,,2013-02-13 05:31:00,
2013-02-12 23:41:00,32.0,27.0,30.02,WSW,246,0.0,1.0,83,0.00,,,0.00,,2013-02-13 05:41:00,
2013-02-12 23:52:00,31.0,27.0,30.02,West,270,0.0,1.0,84,0.00,,,0.00,,2013-02-13 05:52:00,